Location: Boissi�res
(45.2500°N, 2.3667°E)
Time: 00:48:16
(UTC+00:00)

Cosmos 2322 Rocket - Pass Details

Date: 03 March 2021
Orbit: 832 x 852 km, 71.0° (Epoch: 18 April)

Event Time Altitude Azimuth Distance (km) Brightness Sun altitude
Rises 19:05:51 0° 218° (SW) 3,364 5.8 -15.8°
Reaches altitude 10° 19:08:20 10° 223° (SW) 2,434 5.1 -16.2°
Maximum altitude 19:13:48 54° 301° (WNW) 1,005 2.9 -17.2°
Drops below altitude 10° 19:19:19 10° 18° (NNE) 2,455 4.5 -18.1°
Sets 19:21:50 0° 23° (NNE) 3,396 5.2 -18.6°
